TimeAWST,TemperatureF,Dew PointF,Humidity,Sea Level PressureIn,VisibilityMPH,Wind Direction,Wind SpeedMPH,Gust SpeedMPH,PrecipitationIn,Events,Conditions,WindDirDegrees,DateUTC
12:00 AM,69,50,41,29.90,,ENE,12.7,,,,,70,2013-01-22 16:00:00
12:00 AM,68.0,50.0,52,29.92,-9999.0,ENE,12.7,-,N/A,,Unknown,70,2013-01-22 16:00:00
1:00 AM,68.0,50.0,52,29.92,-9999.0,East,11.5,-,N/A,,Unknown,80,2013-01-22 17:00:00
2:00 AM,67,51,47,29.89,,ESE,10.4,,,,,110,2013-01-22 18:00:00
2:00 AM,66.2,51.8,60,29.89,-9999.0,ESE,10.4,-,N/A,,Unknown,110,2013-01-22 18:00:00
3:00 AM,67,52,49,29.89,,East,8.1,,,,,90,2013-01-22 19:00:00
3:00 AM,66.2,51.8,60,29.89,-9999.0,East,8.1,-,N/A,,Unknown,90,2013-01-22 19:00:00
4:00 AM,68.0,53.6,60,29.89,-9999.0,ENE,15.0,-,N/A,,Unknown,60,2013-01-22 20:00:00
5:00 AM,69,52,45,29.88,,ENE,16.1,,,,,70,2013-01-22 21:00:00
5:00 AM,69.8,51.8,53,29.89,-9999.0,ENE,16.1,-,N/A,,Unknown,70,2013-01-22 21:00:00
6:00 AM,73,49,32,29.89,,ENE,20.7,,,,,60,2013-01-22 22:00:00
6:00 AM,73.4,50.0,44,29.89,-9999.0,ENE,20.7,-,N/A,,Unknown,60,2013-01-22 22:00:00
7:00 AM,80.6,46.4,30,29.92,-9999.0,NE,26.5,-,N/A,,Unknown,50,2013-01-22 23:00:00
8:00 AM,85,45,15,29.88,,NE,24.2,,,,,40,2013-01-23 00:00:00
8:00 AM,84.2,44.6,25,29.89,-9999.0,NE,24.2,-,N/A,,Unknown,40,2013-01-23 00:00:00
9:00 AM,90,45,12,29.86,,NE,28.8,,,,,40,2013-01-23 01:00:00
9:00 AM,89.6,44.6,21,29.86,-9999.0,NE,28.8,-,N/A,,Unknown,40,2013-01-23 01:00:00
10:00 AM,95.0,42.8,16,29.83,-9999.0,NE,26.5,-,N/A,,Unknown,40,2013-01-23 02:00:00
11:00 AM,100,36,5,29.80,,NE,23.0,,,,,50,2013-01-23 03:00:00
11:00 AM,100.4,35.6,11,29.80,-9999.0,NE,23.0,-,N/A,,Unknown,50,2013-01-23 03:00:00
11:09 AM,100.4,37.4,11,29.80,-9999.0,NNE,23.0,-,N/A,,Unknown,20,2013-01-23 03:09:00
11:22 AM,100.4,33.8,10,29.80,-9999.0,NE,20.7,32.2,N/A,,Unknown,40,2013-01-23 03:22:00
12:00 PM,104,34,4,29.77,,NE,20.7,,,,,40,2013-01-23 04:00:00
12:00 PM,104.0,33.8,9,29.77,-9999.0,NE,20.7,-,N/A,,Unknown,40,2013-01-23 04:00:00
12:22 PM,102.2,33.8,9,29.77,-9999.0,NE,20.7,32.2,N/A,,Unknown,50,2013-01-23 04:22:00
12:47 PM,104.0,33.8,9,29.77,-9999.0,NNE,23.0,-,N/A,,Unknown,20,2013-01-23 04:47:00
1:00 PM,104.0,32.0,8,29.74,-9999.0,NNE,20.7,-,N/A,,Unknown,30,2013-01-23 05:00:00
1:09 PM,104.0,30.2,8,29.74,-9999.0,NNE,17.3,28.8,N/A,,Unknown,30,2013-01-23 05:09:00
2:00 PM,107,33,4,29.72,,NE,11.5,,,,,40,2013-01-23 06:00:00
2:00 PM,107.6,33.8,8,29.74,-9999.0,NE,11.5,-,N/A,,Unknown,40,2013-01-23 06:00:00
3:00 PM,107,33,4,29.69,,ENE,15.0,,,,,60,2013-01-23 07:00:00
3:00 PM,105.8,33.8,8,29.71,-9999.0,NE,15.0,-,N/A,,Unknown,50,2013-01-23 07:00:00
4:00 PM,105.8,32.0,8,29.68,-9999.0,NE,12.7,-,N/A,,Unknown,50,2013-01-23 08:00:00
5:00 PM,106,32,4,29.67,,NE,15.0,,,,,40,2013-01-23 09:00:00
5:00 PM,105.8,32.0,8,29.68,-9999.0,NE,15.0,-,N/A,,Unknown,40,2013-01-23 09:00:00
6:00 PM,103,33,4,29.66,,NE,16.1,,,,,50,2013-01-23 10:00:00
6:00 PM,102.2,33.8,9,29.68,-9999.0,NE,16.1,-,N/A,,Unknown,50,2013-01-23 10:00:00
7:00 PM,96.8,33.8,11,29.68,-9999.0,ENE,12.7,-,N/A,,Unknown,60,2013-01-23 11:00:00
8:00 PM,92,34,6,29.68,,ENE,12.7,,,,,70,2013-01-23 12:00:00
8:00 PM,93.2,33.8,12,29.68,-9999.0,ENE,12.7,-,N/A,,Unknown,70,2013-01-23 12:00:00
9:00 PM,90,36,8,29.68,,ENE,13.8,,,,,70,2013-01-23 13:00:00
9:00 PM,89.6,37.4,16,29.68,-9999.0,ENE,13.8,-,N/A,,Unknown,70,2013-01-23 13:00:00
10:00 PM,89.6,35.6,15,29.68,-9999.0,East,17.3,-,N/A,,Unknown,80,2013-01-23 14:00:00
11:00 PM,88,38,9,29.64,,ENE,18.4,,,,,60,2013-01-23 15:00:00
11:00 PM,87.8,37.4,17,29.65,-9999.0,ENE,18.4,-,N/A,,Unknown,60,2013-01-23 15:00:00